Powrót do katalogu

LEMUR 2 AHMED-ASRAR

AktywnyNaukaSSO
NORAD 60576·PAYLOAD·🇺🇸 United States

Wystrzelony Aug 16, 2024 z Vandenberg Space Force Base

Loading…

Następne Przeloty (najbliższe 24 godziny)

TLE

ŚwieżeSource: Space-Track

Epoka: Sep 13, 2026, 19:33 UTC

1 60576U 24149DN  26256.81477892  .00007228  00000-0  39711-3 0  9994
2 60576  97.6970 342.7294 0003043  74.2346 285.9221 15.14414802113971

Śledź LEMUR 2 AHMED-ASRAR w czasie rzeczywistym z AllMySat

Download on the App Store